User: anonymous   Login
Location: Unspecified
(0.0000°N, 0.0000°E)
Time: 06:20:34
(UTC+00:00)
Language:

OPTUS D1 - Orbit

View from above orbital plane
View from above orbital plane
View from above satellite
View from above satellite

Ground track
Ground track

The orbit data is extracted from the following two-line orbital elements,

1 29495U 06043B   17080.82511162 -.00000123 +00000-0 +00000-0 0  9991
2 29495 000.0115 140.2063 0003491 226.8006 269.5535 01.00272639038304
Epoch (UTC): 21 March 2017 19:48:09
Eccentricity: 0.0003491
inclination: 0.0115°
perigee height: 35771 km
apogee height: 35801 km
right ascension of ascending node: 140.2063°
argument of perigee: 226.8006°
revolutions per day: 1.00272639
mean anomaly at epoch: 269.5535°
orbit number at epoch: 3830

The dashed part of the orbit path shows where the satellite is in the earth's shadow,  

DLR